Time,TemperatureF,DewpointF,PressureIn,WindDirection,WindDirectionDegrees,WindSpeedMPH,WindSpeedGustMPH,Humidity,HourlyPrecipIn,Conditions,Clouds,dailyrainin,SoftwareType,DateUTC
2013-03-18 00:03:00,54.0,49.0,29.96,South,174,3.0,-999.0,84,-99.99,,,-99.99,,2013-03-18 04:03:00,
2013-03-18 00:13:00,54.0,49.0,29.96,South,174,3.0,-999.0,84,-99.99,,,-99.99,,2013-03-18 04:13:00,
2013-03-18 00:23:00,54.0,49.0,29.96,South,174,3.0,-999.0,84,-99.99,,,-99.99,,2013-03-18 04:23:00,
2013-03-18 00:53:00,54.0,50.0,29.95,ESE,112,5.0,-999.0,87,-99.99,,,-99.99,,2013-03-18 04:53:00,
2013-03-18 01:03:00,54.0,50.0,29.95,ESE,112,5.0,-999.0,87,-99.99,,,-99.99,,2013-03-18 05:03:00,
2013-03-18 01:12:00,54.0,50.0,29.95,ESE,112,5.0,-999.0,87,-99.99,,,-99.99,,2013-03-18 05:12:00,
2013-03-18 01:22:00,54.0,51.0,29.96,WSW,238,3.0,-999.0,89,-99.99,,,-99.99,,2013-03-18 05:22:00,
2013-03-18 01:32:00,54.0,51.0,29.96,WSW,238,3.0,-999.0,89,-99.99,,,-99.99,,2013-03-18 05:32:00,
2013-03-18 01:43:00,54.0,51.0,29.96,WSW,238,3.0,-999.0,89,-99.99,,,-99.99,,2013-03-18 05:43:00,
2013-03-18 01:52:00,54.0,51.0,29.95,South,186,4.0,-999.0,91,-99.99,,,-99.99,,2013-03-18 05:52:00,
2013-03-18 02:02:00,54.0,51.0,29.95,South,186,4.0,-999.0,91,-99.99,,,-99.99,,2013-03-18 06:02:00,
2013-03-18 02:12:00,54.0,51.0,29.95,South,186,4.0,-999.0,91,-99.99,,,-99.99,,2013-03-18 06:12:00,
2013-03-18 02:22:00,54.0,52.0,29.96,NW,314,3.0,-999.0,93,-99.99,,,-99.99,,2013-03-18 06:22:00,
2013-03-18 02:32:00,54.0,52.0,29.96,NW,314,3.0,-999.0,93,-99.99,,,-99.99,,2013-03-18 06:32:00,
2013-03-18 02:42:00,54.0,52.0,29.96,NW,314,3.0,-999.0,93,-99.99,,,-99.99,,2013-03-18 06:42:00,
2013-03-18 02:53:00,53.0,51.0,29.96,SE,144,3.0,-999.0,94,-99.99,,,-99.99,,2013-03-18 06:53:00,
2013-03-18 03:02:00,53.0,51.0,29.96,SE,144,3.0,-999.0,94,-99.99,,,-99.99,,2013-03-18 07:02:00,
2013-03-18 03:12:00,53.0,51.0,29.96,SE,144,3.0,-999.0,94,-99.99,,,-99.99,,2013-03-18 07:12:00,
2013-03-18 03:22:00,53.0,52.0,29.95,SSW,202,5.0,-999.0,95,-99.99,,,-99.99,,2013-03-18 07:22:00,
2013-03-18 03:33:00,53.0,52.0,29.95,SSW,202,5.0,-999.0,95,-99.99,,,-99.99,,2013-03-18 07:33:00,
2013-03-18 03:43:00,53.0,52.0,29.95,SSW,202,5.0,-999.0,95,-99.99,,,-99.99,,2013-03-18 07:43:00,
2013-03-18 03:53:00,53.0,52.0,29.96,SSW,204,2.0,-999.0,95,-99.99,,,-99.99,,2013-03-18 07:53:00,
2013-03-18 04:02:00,53.0,52.0,29.96,SSW,204,2.0,-999.0,95,-99.99,,,-99.99,,2013-03-18 08:02:00,
2013-03-18 04:12:00,53.0,52.0,29.96,SSW,204,2.0,-999.0,95,-99.99,,,-99.99,,2013-03-18 08:12:00,
2013-03-18 04:22:00,53.0,52.0,29.95,SE,143,2.0,-999.0,96,-99.99,,,-99.99,,2013-03-18 08:22:00,
2013-03-18 04:32:00,53.0,52.0,29.95,SE,143,2.0,-999.0,96,-99.99,,,-99.99,,2013-03-18 08:32:00,
2013-03-18 04:33:00,53.0,52.0,29.95,South,183,4.0,-999.0,96,-99.99,,,-99.99,,2013-03-18 08:33:00,
2013-03-18 04:43:00,53.0,52.0,29.95,SE,143,2.0,-999.0,96,-99.99,,,-99.99,,2013-03-18 08:43:00,
2013-03-18 04:53:00,53.0,52.0,29.95,South,183,4.0,-999.0,96,-99.99,,,-99.99,,2013-03-18 08:53:00,
2013-03-18 05:02:00,53.0,52.0,29.95,South,183,4.0,-999.0,96,-99.99,,,-99.99,,2013-03-18 09:02:00,
2013-03-18 05:13:00,53.0,52.0,29.95,South,183,4.0,-999.0,96,-99.99,,,-99.99,,2013-03-18 09:13:00,
2013-03-18 05:22:00,53.0,52.0,29.95,South,183,4.0,-999.0,96,-99.99,,,-99.99,,2013-03-18 09:22:00,
2013-03-18 05:53:00,53.0,52.0,29.94,SW,226,4.0,-999.0,96,-99.99,,,-99.99,,2013-03-18 09:53:00,
2013-03-18 06:04:00,53.0,52.0,29.94,SW,226,4.0,-999.0,96,-99.99,,,-99.99,,2013-03-18 10:04:00,
2013-03-18 06:13:00,53.0,52.0,29.94,SW,226,4.0,-999.0,96,-99.99,,,-99.99,,2013-03-18 10:13:00,
2013-03-18 06:23:00,53.0,52.0,29.94,ESE,104,5.0,-999.0,96,-99.99,,,-99.99,,2013-03-18 10:23:00,
2013-03-18 06:33:00,53.0,52.0,29.94,ESE,104,5.0,-999.0,96,-99.99,,,-99.99,,2013-03-18 10:33:00,
2013-03-18 06:42:00,53.0,52.0,29.94,ESE,104,5.0,-999.0,96,-99.99,,,-99.99,,2013-03-18 10:42:00,
2013-03-18 06:53:00,52.0,51.0,29.95,SSE,149,4.0,-999.0,96,-99.99,,,-99.99,,2013-03-18 10:53:00,
2013-03-18 07:03:00,52.0,51.0,29.95,SSE,149,4.0,-999.0,96,-99.99,,,-99.99,,2013-03-18 11:03:00,
2013-03-18 07:13:00,52.0,51.0,29.95,SSE,149,4.0,-999.0,96,-99.99,,,-99.99,,2013-03-18 11:13:00,
2013-03-18 07:22:00,52.0,51.0,29.97,SE,135,3.0,-999.0,96,-99.99,,,-99.99,,2013-03-18 11:22:00,
2013-03-18 07:32:00,52.0,51.0,29.97,SE,135,3.0,-999.0,96,-99.99,,,-99.99,,2013-03-18 11:32:00,
2013-03-18 07:43:00,52.0,51.0,29.97,SE,135,3.0,-999.0,96,-99.99,,,-99.99,,2013-03-18 11:43:00,
2013-03-18 07:53:00,52.0,51.0,29.97,SE,135,3.0,-999.0,96,-99.99,,,-99.99,,2013-03-18 11:53:00,
2013-03-18 08:02:00,52.0,51.0,29.97,SE,135,3.0,-999.0,96,-99.99,,,-99.99,,2013-03-18 12:02:00,
2013-03-18 08:52:00,44.0,43.0,29.96,ESE,105,7.0,-999.0,96,-99.99,,,-99.99,,2013-03-18 12:52:00,
2013-03-18 09:03:00,44.0,43.0,29.96,ESE,105,7.0,-999.0,96,-99.99,,,-99.99,,2013-03-18 13:03:00,
2013-03-18 09:12:00,44.0,43.0,29.96,ESE,105,7.0,-999.0,96,-99.99,,,-99.99,,2013-03-18 13:12:00,
2013-03-18 09:22:00,44.0,43.0,29.97,East,93,6.0,-999.0,96,-99.99,,,-99.99,,2013-03-18 13:22:00,
2013-03-18 09:33:00,44.0,43.0,29.97,East,93,6.0,-999.0,96,-99.99,,,-99.99,,2013-03-18 13:33:00,
2013-03-18 09:42:00,44.0,43.0,29.97,East,93,6.0,-999.0,96,-99.99,,,-99.99,,2013-03-18 13:42:00,
2013-03-18 09:52:00,43.0,42.0,29.94,East,95,7.0,-999.0,97,-99.99,,,-99.99,,2013-03-18 13:52:00,
2013-03-18 10:02:00,43.0,42.0,29.94,East,95,7.0,-999.0,97,-99.99,,,-99.99,,2013-03-18 14:02:00,
2013-03-18 10:12:00,43.0,42.0,29.94,East,95,7.0,-999.0,97,-99.99,,,-99.99,,2013-03-18 14:12:00,
2013-03-18 10:22:00,42.0,41.0,29.95,ENE,64,6.0,-999.0,96,-99.99,,,-99.99,,2013-03-18 14:22:00,
2013-03-18 10:32:00,42.0,41.0,29.95,ENE,64,6.0,-999.0,96,-99.99,,,-99.99,,2013-03-18 14:32:00,
2013-03-18 10:33:00,42.0,41.0,29.95,East,89,6.0,-999.0,97,-99.99,,,-99.99,,2013-03-18 14:33:00,
2013-03-18 10:42:00,42.0,41.0,29.95,ENE,64,6.0,-999.0,96,-99.99,,,-99.99,,2013-03-18 14:42:00,
2013-03-18 10:52:00,42.0,41.0,29.95,East,89,6.0,-999.0,97,-99.99,,,-99.99,,2013-03-18 14:52:00,
2013-03-18 11:02:00,42.0,41.0,29.95,East,89,6.0,-999.0,97,-99.99,,,-99.99,,2013-03-18 15:02:00,
2013-03-18 11:12:00,42.0,41.0,29.95,East,89,6.0,-999.0,97,-99.99,,,-99.99,,2013-03-18 15:12:00,
2013-03-18 11:22:00,42.0,41.0,29.95,East,89,6.0,-999.0,97,-99.99,,,-99.99,,2013-03-18 15:22:00,
2013-03-18 12:23:00,42.0,41.0,29.93,ESE,104,9.0,-999.0,97,-99.99,,,-99.99,,2013-03-18 16:23:00,
2013-03-18 12:33:00,42.0,41.0,29.93,ESE,104,9.0,-999.0,97,-99.99,,,-99.99,,2013-03-18 16:33:00,
2013-03-18 12:42:00,42.0,41.0,29.93,ESE,104,9.0,-999.0,97,-99.99,,,-99.99,,2013-03-18 16:42:00,
2013-03-18 12:53:00,43.0,42.0,29.94,East,96,9.0,-999.0,97,-99.99,,,-99.99,,2013-03-18 16:53:00,
2013-03-18 13:02:00,43.0,42.0,29.94,East,96,9.0,-999.0,97,-99.99,,,-99.99,,2013-03-18 17:02:00,
2013-03-18 13:12:00,43.0,42.0,29.94,East,96,9.0,-999.0,97,-99.99,,,-99.99,,2013-03-18 17:12:00,
2013-03-18 13:22:00,43.0,42.0,29.94,East,96,9.0,-999.0,97,-99.99,,,-99.99,,2013-03-18 17:22:00,
2013-03-18 13:32:00,43.0,42.0,29.94,East,96,9.0,-999.0,97,-99.99,,,-99.99,,2013-03-18 17:32:00,
2013-03-18 13:52:00,42.0,41.0,29.91,East,81,8.0,-999.0,97,-99.99,,,-99.99,,2013-03-18 17:52:00,
2013-03-18 14:02:00,42.0,41.0,29.91,East,81,8.0,-999.0,97,-99.99,,,-99.99,,2013-03-18 18:02:00,
2013-03-18 14:12:00,42.0,41.0,29.91,East,81,8.0,-999.0,97,-99.99,,,-99.99,,2013-03-18 18:12:00,
2013-03-18 14:22:00,42.0,41.0,29.91,East,81,8.0,-999.0,97,-99.99,,,-99.99,,2013-03-18 18:22:00,
2013-03-18 14:32:00,42.0,41.0,29.91,East,81,8.0,-999.0,97,-99.99,,,-99.99,,2013-03-18 18:32:00,
2013-03-18 14:52:00,42.0,41.0,29.88,East,87,8.0,-999.0,97,-99.99,,,-99.99,,2013-03-18 18:52:00,
2013-03-18 15:03:00,42.0,41.0,29.88,East,87,8.0,-999.0,97,-99.99,,,-99.99,,2013-03-18 19:03:00,
2013-03-18 15:12:00,42.0,41.0,29.88,East,87,8.0,-999.0,97,-99.99,,,-99.99,,2013-03-18 19:12:00,
2013-03-18 15:22:00,41.0,40.0,29.87,East,89,8.0,-999.0,97,-99.99,,,-99.99,,2013-03-18 19:22:00,
2013-03-18 15:33:00,41.0,40.0,29.87,East,89,8.0,-999.0,97,-99.99,,,-99.99,,2013-03-18 19:33:00,
2013-03-18 15:42:00,41.0,40.0,29.87,East,89,8.0,-999.0,97,-99.99,,,-99.99,,2013-03-18 19:42:00,
2013-03-18 15:52:00,41.0,40.0,29.87,ENE,58,6.0,-999.0,97,-99.99,,,-99.99,,2013-03-18 19:52:00,
2013-03-18 16:02:00,41.0,40.0,29.87,ENE,58,6.0,-999.0,97,-99.99,,,-99.99,,2013-03-18 20:02:00,
2013-03-18 16:12:00,41.0,40.0,29.87,ENE,58,6.0,-999.0,97,-99.99,,,-99.99,,2013-03-18 20:12:00,
2013-03-18 16:23:00,41.0,40.0,29.87,NE,45,6.0,-999.0,97,-99.99,,,-99.99,,2013-03-18 20:23:00,
2013-03-18 16:33:00,41.0,40.0,29.87,NE,45,6.0,-999.0,97,-99.99,,,-99.99,,2013-03-18 20:33:00,
2013-03-18 16:43:00,41.0,40.0,29.87,NE,45,6.0,-999.0,97,-99.99,,,-99.99,,2013-03-18 20:43:00,
2013-03-18 16:52:00,42.0,41.0,29.86,East,87,6.0,-999.0,98,-99.99,,,-99.99,,2013-03-18 20:52:00,
2013-03-18 17:02:00,42.0,41.0,29.86,East,87,6.0,-999.0,98,-99.99,,,-99.99,,2013-03-18 21:02:00,
2013-03-18 17:12:00,42.0,41.0,29.86,East,87,6.0,-999.0,98,-99.99,,,-99.99,,2013-03-18 21:12:00,
2013-03-18 17:22:00,44.0,43.0,29.86,East,85,5.0,-999.0,98,-99.99,,,-99.99,,2013-03-18 21:22:00,
2013-03-18 17:32:00,44.0,43.0,29.86,East,85,5.0,-999.0,98,-99.99,,,-99.99,,2013-03-18 21:32:00,
2013-03-18 17:43:00,44.0,43.0,29.86,East,85,5.0,-999.0,98,-99.99,,,-99.99,,2013-03-18 21:43:00,
2013-03-18 17:53:00,42.0,41.0,29.85,ENE,73,4.0,-999.0,98,-99.99,,,-99.99,,2013-03-18 21:53:00,
2013-03-18 18:03:00,42.0,41.0,29.85,ENE,73,4.0,-999.0,98,-99.99,,,-99.99,,2013-03-18 22:03:00,
2013-03-18 18:13:00,42.0,41.0,29.85,ENE,73,4.0,-999.0,98,-99.99,,,-99.99,,2013-03-18 22:13:00,
2013-03-18 18:23:00,48.0,48.0,29.83,ENE,66,4.0,-999.0,99,-99.99,,,-99.99,,2013-03-18 22:23:00,
2013-03-18 18:33:00,48.0,48.0,29.83,ENE,66,4.0,-999.0,99,-99.99,,,-99.99,,2013-03-18 22:33:00,
2013-03-18 18:42:00,48.0,48.0,29.83,ENE,66,4.0,-999.0,99,-99.99,,,-99.99,,2013-03-18 22:42:00,
2013-03-18 18:53:00,45.0,44.0,29.92,West,272,8.0,-999.0,98,-99.99,,,-99.99,,2013-03-18 22:53:00,
2013-03-18 19:03:00,45.0,44.0,29.92,West,272,8.0,-999.0,98,-99.99,,,-99.99,,2013-03-18 23:03:00,
2013-03-18 19:13:00,45.0,44.0,29.92,West,272,8.0,-999.0,98,-99.99,,,-99.99,,2013-03-18 23:13:00,
2013-03-18 19:23:00,47.0,47.0,29.93,WNW,284,6.0,-999.0,99,-99.99,,,-99.99,,2013-03-18 23:23:00,
2013-03-18 19:32:00,47.0,47.0,29.93,WNW,284,6.0,-999.0,99,-99.99,,,-99.99,,2013-03-18 23:32:00,
2013-03-18 19:43:00,47.0,47.0,29.93,WNW,284,6.0,-999.0,99,-99.99,,,-99.99,,2013-03-18 23:43:00,
2013-03-18 19:53:00,46.0,45.0,29.83,East,97,8.0,-999.0,98,-99.99,,,-99.99,,2013-03-18 23:53:00,
2013-03-18 20:02:00,46.0,45.0,29.83,East,97,8.0,-999.0,98,-99.99,,,-99.99,,2013-03-19 00:02:00,
2013-03-18 20:12:00,46.0,45.0,29.83,East,97,8.0,-999.0,98,-99.99,,,-99.99,,2013-03-19 00:12:00,
2013-03-18 20:23:00,45.0,44.0,29.85,ENE,63,5.0,-999.0,98,-99.99,,,-99.99,,2013-03-19 00:23:00,
2013-03-18 20:32:00,45.0,44.0,29.85,ENE,63,5.0,-999.0,98,-99.99,,,-99.99,,2013-03-19 00:32:00,
2013-03-18 20:43:00,45.0,44.0,29.85,ENE,63,5.0,-999.0,98,-99.99,,,-99.99,,2013-03-19 00:43:00,
2013-03-18 20:52:00,47.0,47.0,29.85,ENE,70,4.0,-999.0,99,-99.99,,,-99.99,,2013-03-19 00:52:00,
2013-03-18 21:02:00,47.0,47.0,29.85,ENE,70,4.0,-999.0,99,-99.99,,,-99.99,,2013-03-19 01:02:00,
2013-03-18 21:12:00,47.0,47.0,29.85,ENE,70,4.0,-999.0,99,-99.99,,,-99.99,,2013-03-19 01:12:00,
2013-03-18 21:22:00,46.0,46.0,29.86,East,80,5.0,-999.0,99,-99.99,,,-99.99,,2013-03-19 01:22:00,
2013-03-18 21:32:00,46.0,46.0,29.86,East,80,5.0,-999.0,99,-99.99,,,-99.99,,2013-03-19 01:32:00,
2013-03-18 21:33:00,46.0,45.0,29.87,ENE,64,6.0,-999.0,98,-99.99,,,-99.99,,2013-03-19 01:33:00,
2013-03-18 21:43:00,46.0,46.0,29.86,East,80,5.0,-999.0,99,-99.99,,,-99.99,,2013-03-19 01:43:00,
2013-03-18 21:53:00,46.0,45.0,29.87,ENE,64,6.0,-999.0,98,-99.99,,,-99.99,,2013-03-19 01:53:00,
2013-03-18 22:03:00,46.0,45.0,29.87,ENE,64,6.0,-999.0,98,-99.99,,,-99.99,,2013-03-19 02:03:00,
2013-03-18 22:13:00,46.0,45.0,29.87,ENE,64,6.0,-999.0,98,-99.99,,,-99.99,,2013-03-19 02:13:00,
2013-03-18 22:23:00,46.0,45.0,29.87,ENE,64,6.0,-999.0,98,-99.99,,,-99.99,,2013-03-19 02:23:00,
2013-03-18 22:33:00,45.0,44.0,29.88,ENE,65,7.0,-999.0,97,-99.99,,,-99.99,,2013-03-19 02:33:00,
2013-03-18 22:53:00,45.0,44.0,29.88,ENE,65,7.0,-999.0,97,-99.99,,,-99.99,,2013-03-19 02:53:00,
2013-03-18 23:02:00,45.0,44.0,29.88,ENE,65,7.0,-999.0,97,-99.99,,,-99.99,,2013-03-19 03:02:00,
2013-03-18 23:12:00,45.0,44.0,29.88,ENE,65,7.0,-999.0,97,-99.99,,,-99.99,,2013-03-19 03:12:00,
2013-03-18 23:22:00,45.0,44.0,29.88,ENE,65,7.0,-999.0,97,-99.99,,,-99.99,,2013-03-19 03:22:00,
2013-03-18 23:54:00,45.0,44.0,29.91,ENE,61,6.0,-999.0,97,-99.99,,,-99.99,,2013-03-19 03:54:00,